Location: *
(49.9853°N, 3.5569°E)
Time: 02:21:29
(UTC+00:00)

MOS 1 - Pass Details

Date: 22 September 2019
Orbit: 878 x 892 km, 99.2° (Epoch: 14 October)

Event Time Altitude Azimuth Distance (km) Brightness Sun altitude
Rises 18:27:20 0° 149° (SSE) 3,490 7.0 -7.7°
Reaches altitude 10° 18:29:45 10° 146° (SE) 2,553 6.3 -8.0°
Maximum altitude 18:35:19 59° 68° (ENE) 1,021 4.4 -8.9°
Drops below altitude 10° 18:40:54 10° 350° (N) 2,562 7.0 -9.8°
Sets 18:43:20 0° 347° (NNW) 3,503 7.8 -10.2°
